This is the latest recevied weather packets stored in our database for station/object OE3EMC-13. If no packets are shown the sender has not sent any weather packets the latest 10 day(s).
| Time | Temp. | Humidity | Pressure | Rain* | Wind** | Luminosity | Snow |
|---|---|---|---|---|---|---|---|
| 1777451590 | 7.78° C | 47% | 1100 hPa | 0 mm | - | - | - |
| 1777450991 | 7.78° C | 47% | 1100 hPa | 0 mm | - | - | - |
| 1777450391 | 6.67° C | 50% | 1100 hPa | 0 mm | - | - | - |
| 1777449790 | 6.67° C | 50% | 1100 hPa | 0 mm | - | - | - |
| 1777449190 | 6.11° C | 48% | 1100 hPa | 0 mm | - | - | - |
| 1777448590 | 6.11° C | 48% | 1100 hPa | 0 mm | - | - | - |
| 1777447996 | 5.56° C | 51% | 1100 hPa | 0 mm | - | - | - |
| 1777447396 | 5.56° C | 51% | 1100 hPa | 0 mm | - | - | - |
| 1777446794 | 4.44° C | 50% | 1100 hPa | 0 mm | - | - | - |
| 1777446194 | 4.44° C | 50% | 1100 hPa | 0 mm | - | - | - |
| 1777445595 | 3.89° C | 53% | 1100 hPa | 0 mm | - | - | - |
| 1777444994 | 3.89° C | 53% | 1100 hPa | 0 mm | - | - | - |
| 1777444395 | 2.78° C | 53% | 1100 hPa | 0 mm | - | - | - |
| 1777443793 | 2.78° C | 53% | 1100 hPa | 0 mm | - | - | - |
| 1777443194 | 2.22° C | 54% | 1100 hPa | 0 mm | - | - | - |
| 1777442593 | 2.22° C | 54% | 1100 hPa | 0 mm | - | - | - |
| 1777441993 | 1.67° C | 54% | 1100 hPa | 0 mm | - | - | - |
| 1777441394 | 1.67° C | 54% | 1100 hPa | 0 mm | - | - | - |
| 1777440793 | 1.11° C | 56% | 1100 hPa | 0 mm | - | - | - |
| 1777440194 | 1.11° C | 56% | 1100 hPa | 0 mm | - | - | - |
| 1777439592 | 0.56° C | 58% | 1100 hPa | 0 mm | - | - | - |
| 1777438994 | 0.56° C | 58% | 1100 hPa | 0 mm | - | - | - |
| 1777438392 | -0.56° C | 60% | 1100 hPa | 0 mm | - | - | - |
| 1777437792 | -0.56° C | 60% | 1100 hPa | 0 mm | - | - | - |
| 1777437193 | -1.67° C | 63% | 1100 hPa | 0 mm | - | - | - |
* Rain latest hour (hover to see other rain measurements)
** Current wind speed in m/s (hover to see current wind gust speed)